Location: Cisewo
(53.3833°N, 14.9000°E)
Time: 11:04:18
(UTC+00:00)

CARTOSAT-1 - Pass Details

Date: 18 April 2021
Orbit: 615 x 619 km, 97.8° (Epoch: 14 May)

Event Time Altitude Azimuth Distance (km) Brightness Sun altitude
Exits shadow 19:27:14 16° 125° (SE) 1,611 5.0 -11.3°
Maximum altitude 19:30:09 36° 66° (ENE) 986 4.4 -11.7°
Drops below altitude 10° 19:34:08 10° 359° (N) 1,997 6.7 -12.2°
Sets 19:36:26 0° 351° (N) 2,907 7.8 -12.4°
